Year,Month,Day,Hour,Minute,Value (Times are PST for temperature in C)
2018,05,14,00,00,15.20
2018,05,14,00,01,15.10
2018,05,14,00,02,15.10
2018,05,14,00,03,15.10
2018,05,14,00,04,15.10
2018,05,14,00,05,15.10
2018,05,14,00,06,15.10
2018,05,14,00,07,15.10
2018,05,14,00,08,15.00
2018,05,14,00,09,15.00
2018,05,14,00,10,15.00
2018,05,14,00,11,14.90
2018,05,14,00,12,14.90
2018,05,14,00,13,14.90
2018,05,14,00,14,14.90
2018,05,14,00,15,14.90
2018,05,14,00,16,14.90
2018,05,14,00,17,14.90
2018,05,14,00,18,14.90
2018,05,14,00,19,14.90
2018,05,14,00,20,14.90
2018,05,14,00,21,14.90
2018,05,14,00,22,14.90
2018,05,14,00,23,14.90
2018,05,14,00,24,14.90
2018,05,14,00,25,14.80
2018,05,14,00,26,14.80
2018,05,14,00,27,14.80
2018,05,14,00,28,14.80
2018,05,14,00,29,14.70
2018,05,14,00,30,14.70
2018,05,14,00,31,14.60
2018,05,14,00,32,14.60
2018,05,14,00,33,14.60
2018,05,14,00,34,14.50
2018,05,14,00,35,14.50
2018,05,14,00,36,14.50
2018,05,14,00,37,14.50
2018,05,14,00,38,14.40
2018,05,14,00,39,14.40
2018,05,14,00,40,14.40
2018,05,14,00,41,14.40
2018,05,14,00,42,14.40
2018,05,14,00,43,14.40
2018,05,14,00,44,14.40
2018,05,14,00,45,14.40
2018,05,14,00,46,14.50
2018,05,14,00,47,14.50
2018,05,14,00,48,14.50
2018,05,14,00,49,14.60
2018,05,14,00,50,14.60
2018,05,14,00,51,14.60
2018,05,14,00,52,14.50
2018,05,14,00,53,14.50
2018,05,14,00,54,14.50
2018,05,14,00,55,14.50
2018,05,14,00,56,14.60
2018,05,14,00,57,14.50
2018,05,14,00,58,14.60
2018,05,14,00,59,14.60
2018,05,14,01,00,14.50
2018,05,14,01,01,14.50
2018,05,14,01,02,14.50
2018,05,14,01,03,14.40
2018,05,14,01,04,14.40
2018,05,14,01,05,14.30
2018,05,14,01,06,14.30
2018,05,14,01,07,14.30
2018,05,14,01,08,14.20
2018,05,14,01,09,14.20
2018,05,14,01,10,14.20
2018,05,14,01,11,14.20
2018,05,14,01,12,14.20
2018,05,14,01,13,14.20
2018,05,14,01,14,14.20
2018,05,14,01,15,14.20
2018,05,14,01,16,14.10
2018,05,14,01,17,14.10
2018,05,14,01,18,14.10
2018,05,14,01,19,14.00
2018,05,14,01,20,14.00
2018,05,14,01,21,14.00
2018,05,14,01,22,13.90
2018,05,14,01,23,13.90
2018,05,14,01,24,13.80
2018,05,14,01,25,13.80
2018,05,14,01,26,13.80
2018,05,14,01,27,13.80
2018,05,14,01,28,13.80
2018,05,14,01,29,13.80
2018,05,14,01,30,13.80
2018,05,14,01,31,13.80
2018,05,14,01,32,13.80
2018,05,14,01,33,13.80
2018,05,14,01,34,13.80
2018,05,14,01,35,13.80
2018,05,14,01,36,13.80
2018,05,14,01,37,13.80
2018,05,14,01,38,13.80
2018,05,14,01,39,13.90
2018,05,14,01,40,13.90
2018,05,14,01,41,13.90
2018,05,14,01,42,13.90
2018,05,14,01,43,13.90
2018,05,14,01,44,14.00
2018,05,14,01,45,14.00
2018,05,14,01,46,14.00
2018,05,14,01,47,14.00
2018,05,14,01,48,14.00
2018,05,14,01,49,14.00
2018,05,14,01,50,14.00
2018,05,14,01,51,14.00
2018,05,14,01,52,13.90
2018,05,14,01,53,13.90
2018,05,14,01,54,13.90
2018,05,14,01,55,13.90
2018,05,14,01,56,13.80
2018,05,14,01,57,13.80
2018,05,14,01,58,13.80
2018,05,14,01,59,13.70
2018,05,14,02,00,13.70
2018,05,14,02,01,13.60
2018,05,14,02,02,13.60
2018,05,14,02,03,13.60
2018,05,14,02,04,13.50
2018,05,14,02,05,13.50
2018,05,14,02,06,13.40
2018,05,14,02,07,13.40
2018,05,14,02,08,13.40
2018,05,14,02,09,13.40
2018,05,14,02,10,13.40
2018,05,14,02,11,13.30
2018,05,14,02,12,13.30
2018,05,14,02,13,13.30
2018,05,14,02,14,13.30
2018,05,14,02,15,13.30
2018,05,14,02,16,13.30
2018,05,14,02,17,13.20
2018,05,14,02,18,13.20
2018,05,14,02,19,13.20
2018,05,14,02,20,13.10
2018,05,14,02,21,13.10
2018,05,14,02,22,13.10
2018,05,14,02,23,13.10
2018,05,14,02,24,13.10
2018,05,14,02,25,13.10
2018,05,14,02,26,13.10
2018,05,14,02,27,13.10
2018,05,14,02,28,13.10
2018,05,14,02,29,13.10
2018,05,14,02,30,13.10
2018,05,14,02,31,13.10
2018,05,14,02,32,13.10
2018,05,14,02,33,13.10
2018,05,14,02,34,13.10
2018,05,14,02,35,13.10
2018,05,14,02,36,13.10
2018,05,14,02,37,13.10
2018,05,14,02,38,13.10
2018,05,14,02,39,13.10
2018,05,14,02,40,13.10
2018,05,14,02,41,13.00
2018,05,14,02,42,13.00
2018,05,14,02,43,13.00
2018,05,14,02,44,13.00
2018,05,14,02,45,13.00
2018,05,14,02,46,12.90
2018,05,14,02,47,12.90
2018,05,14,02,48,12.90
2018,05,14,02,49,12.90
2018,05,14,02,50,12.90
2018,05,14,02,51,12.80
2018,05,14,02,52,12.80
2018,05,14,02,53,12.80
2018,05,14,02,54,12.80
2018,05,14,02,55,12.80
2018,05,14,02,56,12.70
2018,05,14,02,57,12.70
2018,05,14,02,58,12.70
2018,05,14,02,59,12.70
2018,05,14,03,00,12.70
2018,05,14,03,01,12.70
2018,05,14,03,02,12.70
2018,05,14,03,03,12.70
2018,05,14,03,04,12.70
2018,05,14,03,05,12.70
2018,05,14,03,06,12.70
2018,05,14,03,07,12.70
2018,05,14,03,08,12.70
2018,05,14,03,09,12.70
2018,05,14,03,10,12.70
2018,05,14,03,11,12.70
2018,05,14,03,12,12.70
2018,05,14,03,13,12.70
2018,05,14,03,14,12.70
2018,05,14,03,15,12.70
2018,05,14,03,16,12.70
2018,05,14,03,17,12.70
2018,05,14,03,18,12.70
2018,05,14,03,19,12.70
2018,05,14,03,20,12.70
2018,05,14,03,21,12.70
2018,05,14,03,22,12.60
2018,05,14,03,23,12.60
2018,05,14,03,24,12.60
2018,05,14,03,25,12.60
2018,05,14,03,26,12.60
2018,05,14,03,27,12.60
2018,05,14,03,28,12.50
2018,05,14,03,29,12.50
2018,05,14,03,30,12.50
2018,05,14,03,31,12.50
2018,05,14,03,32,12.40
2018,05,14,03,33,12.40
2018,05,14,03,34,12.40
2018,05,14,03,35,12.30
2018,05,14,03,36,12.30
2018,05,14,03,37,12.30
2018,05,14,03,38,12.30
2018,05,14,03,39,12.30
2018,05,14,03,40,12.30
2018,05,14,03,41,12.30
2018,05,14,03,42,12.30
2018,05,14,03,43,12.30
2018,05,14,03,44,12.30
2018,05,14,03,45,12.30
2018,05,14,03,46,12.30
2018,05,14,03,47,12.20
2018,05,14,03,48,12.20
2018,05,14,03,49,12.20
2018,05,14,03,50,12.20
2018,05,14,03,51,12.20
2018,05,14,03,52,12.20
2018,05,14,03,53,12.20
2018,05,14,03,54,12.20
2018,05,14,03,55,12.20
2018,05,14,03,56,12.20
2018,05,14,03,57,12.20
2018,05,14,03,58,12.20
2018,05,14,03,59,12.20
2018,05,14,04,00,12.10
2018,05,14,04,01,12.10
2018,05,14,04,02,12.10
2018,05,14,04,03,12.10
2018,05,14,04,04,12.10
2018,05,14,04,05,12.10
2018,05,14,04,06,12.00
2018,05,14,04,07,12.00
2018,05,14,04,08,12.00
2018,05,14,04,09,11.90
2018,05,14,04,10,11.90
2018,05,14,04,11,11.90
2018,05,14,04,12,11.90
2018,05,14,04,13,11.90
2018,05,14,04,14,11.90
2018,05,14,04,15,11.80
2018,05,14,04,16,11.80
2018,05,14,04,17,11.80
2018,05,14,04,18,11.80
2018,05,14,04,19,11.70
2018,05,14,04,20,11.70
2018,05,14,04,21,11.70
2018,05,14,04,22,11.70
2018,05,14,04,23,11.70
2018,05,14,04,24,11.70
2018,05,14,04,25,11.70
2018,05,14,04,26,11.70
2018,05,14,04,27,11.70
2018,05,14,04,28,11.70
2018,05,14,04,29,11.70
2018,05,14,04,30,11.70
2018,05,14,04,31,11.70
2018,05,14,04,32,11.70
2018,05,14,04,33,11.70
2018,05,14,04,34,11.80
2018,05,14,04,35,11.80
2018,05,14,04,36,11.80
2018,05,14,04,37,11.80
2018,05,14,04,38,11.70
2018,05,14,04,39,11.70
2018,05,14,04,40,11.70
2018,05,14,04,41,11.70
2018,05,14,04,42,11.70
2018,05,14,04,43,11.60
2018,05,14,04,44,11.60
2018,05,14,04,45,11.60
2018,05,14,04,46,11.60
2018,05,14,04,47,11.60
2018,05,14,04,48,11.50
2018,05,14,04,49,11.50
2018,05,14,04,50,11.50
2018,05,14,04,51,11.40
2018,05,14,04,52,11.40
2018,05,14,04,53,11.40
2018,05,14,04,54,11.40
2018,05,14,04,55,11.40
2018,05,14,04,56,11.40
2018,05,14,04,57,11.40
2018,05,14,04,58,11.40
2018,05,14,04,59,11.40
2018,05,14,05,00,11.40
2018,05,14,05,01,11.30
2018,05,14,05,02,11.30
2018,05,14,05,03,11.30
2018,05,14,05,04,11.30
2018,05,14,05,05,11.30
2018,05,14,05,06,11.20
2018,05,14,05,07,11.20
2018,05,14,05,08,11.20
2018,05,14,05,09,11.20
2018,05,14,05,10,11.20
2018,05,14,05,11,11.20
2018,05,14,05,12,11.20
2018,05,14,05,13,11.10
2018,05,14,05,14,11.10
2018,05,14,05,15,11.10
2018,05,14,05,16,11.10
2018,05,14,05,17,11.10
2018,05,14,05,18,11.10
2018,05,14,05,19,11.10
2018,05,14,05,20,11.00
2018,05,14,05,21,11.00
2018,05,14,05,22,11.00
2018,05,14,05,23,10.90
2018,05,14,05,24,10.90
2018,05,14,05,25,10.90
2018,05,14,05,26,10.90
2018,05,14,05,27,10.90
2018,05,14,05,28,10.90
2018,05,14,05,29,10.80
2018,05,14,05,30,10.80
2018,05,14,05,31,10.80
2018,05,14,05,32,10.80
2018,05,14,05,33,10.80
2018,05,14,05,34,10.80
2018,05,14,05,35,10.80
2018,05,14,05,36,10.80
2018,05,14,05,37,10.80
2018,05,14,05,38,10.80
2018,05,14,05,39,10.70
2018,05,14,05,40,10.70
2018,05,14,05,41,10.80
2018,05,14,05,42,10.80
2018,05,14,05,43,10.80
2018,05,14,05,44,10.80
2018,05,14,05,45,10.70
2018,05,14,05,46,10.70
2018,05,14,05,47,10.80
2018,05,14,05,48,10.80
2018,05,14,05,49,10.80
2018,05,14,05,50,10.80
2018,05,14,05,51,10.80
2018,05,14,05,52,10.80
2018,05,14,05,53,10.80
2018,05,14,05,54,10.80
2018,05,14,05,55,10.80
2018,05,14,05,56,10.80
2018,05,14,05,57,10.80
2018,05,14,05,58,10.80
2018,05,14,05,59,10.70
2018,05,14,06,00,10.70
2018,05,14,06,01,10.70
2018,05,14,06,02,10.70
2018,05,14,06,03,10.70
2018,05,14,06,04,10.70
2018,05,14,06,05,10.70
2018,05,14,06,06,10.70
2018,05,14,06,07,10.70
2018,05,14,06,08,10.70
2018,05,14,06,09,10.70
2018,05,14,06,10,10.70
2018,05,14,06,11,10.70
2018,05,14,06,12,10.70
2018,05,14,06,13,10.70
2018,05,14,06,14,10.70
2018,05,14,06,15,10.70
2018,05,14,06,16,10.70
2018,05,14,06,17,10.70
2018,05,14,06,18,10.70
2018,05,14,06,19,10.70
2018,05,14,06,20,10.70
2018,05,14,06,21,10.70
2018,05,14,06,22,10.70
2018,05,14,06,23,10.70
2018,05,14,06,24,10.70
2018,05,14,06,25,10.80
2018,05,14,06,26,10.80
2018,05,14,06,27,10.80
2018,05,14,06,28,10.70
2018,05,14,06,29,10.80
2018,05,14,06,30,10.80
2018,05,14,06,31,10.70
2018,05,14,06,32,10.70
2018,05,14,06,33,10.70
2018,05,14,06,34,10.70
2018,05,14,06,35,10.70
2018,05,14,06,36,10.80
2018,05,14,06,37,10.80
2018,05,14,06,38,10.80
2018,05,14,06,39,10.80
2018,05,14,06,40,10.80
2018,05,14,06,41,10.80
2018,05,14,06,42,10.80
2018,05,14,06,43,10.80
2018,05,14,06,44,10.80
2018,05,14,06,45,10.80
2018,05,14,06,46,10.80
2018,05,14,06,47,10.90
2018,05,14,06,48,10.90
2018,05,14,06,49,10.90
2018,05,14,06,50,10.90
2018,05,14,06,51,10.90
2018,05,14,06,52,10.90
2018,05,14,06,53,10.90
2018,05,14,06,54,11.00
2018,05,14,06,55,11.00
2018,05,14,06,56,11.00
2018,05,14,06,57,11.10
2018,05,14,06,58,11.10
2018,05,14,06,59,11.10
2018,05,14,07,00,11.20
2018,05,14,07,01,11.20
2018,05,14,07,02,11.20
2018,05,14,07,03,11.30
2018,05,14,07,04,11.30
2018,05,14,07,05,11.30
2018,05,14,07,06,11.40
2018,05,14,07,07,11.40
2018,05,14,07,08,11.40
2018,05,14,07,09,11.50
2018,05,14,07,10,11.50
2018,05,14,07,11,11.60
2018,05,14,07,12,11.60
2018,05,14,07,13,11.70
2018,05,14,07,14,11.70
2018,05,14,07,15,11.80
2018,05,14,07,16,11.90
2018,05,14,07,17,11.90
2018,05,14,07,18,12.00
2018,05,14,07,19,12.00
2018,05,14,07,20,12.10
2018,05,14,07,21,12.20
2018,05,14,07,22,12.20
2018,05,14,07,23,12.30
2018,05,14,07,24,12.40
2018,05,14,07,25,12.50
2018,05,14,07,26,12.60
2018,05,14,07,27,12.70
2018,05,14,07,28,12.80
2018,05,14,07,29,12.90
2018,05,14,07,30,13.00
2018,05,14,07,31,13.10
2018,05,14,07,32,13.20
2018,05,14,07,33,13.30
2018,05,14,07,34,13.40
2018,05,14,07,35,13.50
2018,05,14,07,36,13.50
2018,05,14,07,37,13.60
2018,05,14,07,38,13.70
2018,05,14,07,39,13.80
2018,05,14,07,40,13.80
2018,05,14,07,41,13.90
2018,05,14,07,42,14.00
2018,05,14,07,43,14.00
2018,05,14,07,44,14.10
2018,05,14,07,45,14.10
2018,05,14,07,46,14.20
2018,05,14,07,47,14.20
2018,05,14,07,48,14.30
2018,05,14,07,49,14.30
2018,05,14,07,50,14.40
2018,05,14,07,51,14.40
2018,05,14,07,52,14.40
2018,05,14,07,53,14.40
2018,05,14,07,54,14.50
2018,05,14,07,55,14.50
2018,05,14,07,56,14.50
2018,05,14,07,57,14.50
2018,05,14,07,58,14.60
2018,05,14,07,59,14.60
2018,05,14,08,00,14.60
2018,05,14,08,01,14.70
2018,05,14,08,02,14.70
2018,05,14,08,03,14.80
2018,05,14,08,04,14.80
2018,05,14,08,05,14.90
2018,05,14,08,06,14.90
2018,05,14,08,07,15.00
2018,05,14,08,08,15.00
2018,05,14,08,09,15.10
2018,05,14,08,10,15.10
2018,05,14,08,11,15.10
2018,05,14,08,12,15.10
2018,05,14,08,13,15.20
2018,05,14,08,14,15.20
2018,05,14,08,15,15.30
2018,05,14,08,16,15.30
2018,05,14,08,17,15.30
2018,05,14,08,18,15.40
2018,05,14,08,19,15.50
2018,05,14,08,20,15.60
2018,05,14,08,21,15.60
2018,05,14,08,22,15.70
2018,05,14,08,23,15.70
2018,05,14,08,24,15.70
2018,05,14,08,25,15.80
2018,05,14,08,26,15.80
2018,05,14,08,27,15.80
2018,05,14,08,28,15.90
2018,05,14,08,29,15.90
2018,05,14,08,30,15.90
2018,05,14,08,31,16.00
2018,05,14,08,32,16.00
2018,05,14,08,33,16.10
2018,05,14,08,34,16.10
2018,05,14,08,35,16.20
2018,05,14,08,36,16.20
2018,05,14,08,37,16.30
2018,05,14,08,38,16.30
2018,05,14,08,39,16.40
2018,05,14,08,40,16.40
2018,05,14,08,41,16.40
2018,05,14,08,42,16.50
2018,05,14,08,43,16.50
2018,05,14,08,44,16.60
2018,05,14,08,45,16.60
2018,05,14,08,46,16.70
2018,05,14,08,47,16.70
2018,05,14,08,48,16.80
2018,05,14,08,49,16.80
2018,05,14,08,50,16.90
2018,05,14,08,51,16.90
2018,05,14,08,52,16.90
2018,05,14,08,53,17.00
2018,05,14,08,54,17.00
2018,05,14,08,55,17.10
2018,05,14,08,56,17.10
2018,05,14,08,57,17.20
2018,05,14,08,58,17.20
2018,05,14,08,59,17.30
2018,05,14,09,00,17.30
2018,05,14,09,01,17.40
2018,05,14,09,02,17.50
2018,05,14,09,03,17.50
2018,05,14,09,04,17.60
2018,05,14,09,05,17.60
2018,05,14,09,06,17.60
2018,05,14,09,07,17.60
2018,05,14,09,08,17.60
2018,05,14,09,09,17.60
2018,05,14,09,10,17.60
2018,05,14,09,11,17.70
2018,05,14,09,12,17.70
2018,05,14,09,13,17.80
2018,05,14,09,14,17.80
2018,05,14,09,15,17.80
2018,05,14,09,16,17.90
2018,05,14,09,17,17.90
2018,05,14,09,18,18.00
2018,05,14,09,19,18.00
2018,05,14,09,20,18.10
2018,05,14,09,21,18.20
2018,05,14,09,22,18.20
2018,05,14,09,23,18.30
2018,05,14,09,24,18.40
2018,05,14,09,25,18.50
2018,05,14,09,26,18.50
2018,05,14,09,27,18.60
2018,05,14,09,28,18.60
2018,05,14,09,29,18.70
2018,05,14,09,30,18.70
2018,05,14,09,31,18.80
2018,05,14,09,32,18.80
2018,05,14,09,33,18.80
2018,05,14,09,34,18.80
2018,05,14,09,35,18.80
2018,05,14,09,36,18.90
2018,05,14,09,37,18.90
2018,05,14,09,38,19.00
2018,05,14,09,39,19.10
2018,05,14,09,40,19.10
2018,05,14,09,41,19.20
2018,05,14,09,42,19.20
2018,05,14,09,43,19.30
2018,05,14,09,44,19.40
2018,05,14,09,45,19.40
2018,05,14,09,46,19.50
2018,05,14,09,47,19.50
2018,05,14,09,48,19.60
2018,05,14,09,49,19.60
2018,05,14,09,50,19.60
2018,05,14,09,51,19.60
2018,05,14,09,52,19.60
2018,05,14,09,53,19.70
2018,05,14,09,54,19.70
2018,05,14,09,55,19.70
2018,05,14,09,56,19.70
2018,05,14,09,57,19.70
2018,05,14,09,58,19.80
2018,05,14,09,59,19.80
2018,05,14,10,00,19.90
2018,05,14,10,01,19.90
2018,05,14,10,02,20.00
2018,05,14,10,03,20.10
2018,05,14,10,04,20.10
2018,05,14,10,05,20.20
2018,05,14,10,06,20.20
2018,05,14,10,07,20.30
2018,05,14,10,08,20.30
2018,05,14,10,09,20.40
2018,05,14,10,10,20.40
2018,05,14,10,11,20.50
2018,05,14,10,12,20.50
2018,05,14,10,13,20.60
2018,05,14,10,14,20.70
2018,05,14,10,15,20.70
2018,05,14,10,16,20.80
2018,05,14,10,17,20.80
2018,05,14,10,18,20.90
2018,05,14,10,19,20.90
2018,05,14,10,20,21.00
2018,05,14,10,21,21.00
2018,05,14,10,22,21.10
2018,05,14,10,23,21.10
2018,05,14,10,24,21.10
2018,05,14,10,25,21.20
2018,05,14,10,26,21.20
2018,05,14,10,27,21.30
2018,05,14,10,28,21.40
2018,05,14,10,29,21.50
2018,05,14,10,30,21.60
2018,05,14,10,31,21.60
2018,05,14,10,32,21.60
2018,05,14,10,33,21.60
2018,05,14,10,34,21.60
2018,05,14,10,35,21.60
2018,05,14,10,36,21.60
2018,05,14,10,37,21.60
2018,05,14,10,38,21.60
2018,05,14,10,39,21.50
2018,05,14,10,40,21.50
2018,05,14,10,41,21.50
2018,05,14,10,42,21.50
2018,05,14,10,43,21.60
2018,05,14,10,44,21.60
2018,05,14,10,45,21.70
2018,05,14,10,46,21.70
2018,05,14,10,47,21.60
2018,05,14,10,48,21.60
2018,05,14,10,49,21.70
2018,05,14,10,50,21.70
2018,05,14,10,51,21.80
2018,05,14,10,52,21.80
2018,05,14,10,53,21.80
2018,05,14,10,54,21.80
2018,05,14,10,55,21.80
2018,05,14,10,56,21.80
2018,05,14,10,57,21.80
2018,05,14,10,58,21.90
2018,05,14,10,59,21.90
2018,05,14,11,00,21.90
2018,05,14,11,01,21.90
2018,05,14,11,02,21.90
2018,05,14,11,03,21.90
2018,05,14,11,04,21.90
2018,05,14,11,05,21.90
2018,05,14,11,06,21.90
2018,05,14,11,07,21.90
2018,05,14,11,08,21.90
2018,05,14,11,09,21.90
2018,05,14,11,10,21.90
2018,05,14,11,11,21.90
2018,05,14,11,12,21.90
2018,05,14,11,13,21.90
2018,05,14,11,14,21.90
2018,05,14,11,15,21.90
2018,05,14,11,16,21.90
2018,05,14,11,17,22.00
2018,05,14,11,18,22.10
2018,05,14,11,19,22.20
2018,05,14,11,20,22.30
2018,05,14,11,21,22.40
2018,05,14,11,22,22.40
2018,05,14,11,23,22.40
2018,05,14,11,24,22.50
2018,05,14,11,25,22.60
2018,05,14,11,26,22.70
2018,05,14,11,27,22.70
2018,05,14,11,28,22.70
2018,05,14,11,29,22.70
2018,05,14,11,30,22.80
2018,05,14,11,31,22.80
2018,05,14,11,32,22.70
2018,05,14,11,33,22.70
2018,05,14,11,34,22.70
2018,05,14,11,35,22.60
2018,05,14,11,36,22.60
2018,05,14,11,37,22.60
2018,05,14,11,38,22.60
2018,05,14,11,39,22.60
2018,05,14,11,40,22.60
2018,05,14,11,41,22.60
2018,05,14,11,42,22.60
2018,05,14,11,43,22.60
2018,05,14,11,44,22.60
2018,05,14,11,45,22.60
2018,05,14,11,46,22.60
2018,05,14,11,47,22.70
2018,05,14,11,48,22.70
2018,05,14,11,49,22.80
2018,05,14,11,50,22.80
2018,05,14,11,51,22.80
2018,05,14,11,52,22.80
2018,05,14,11,53,22.70
2018,05,14,11,54,22.70
2018,05,14,11,55,22.60
2018,05,14,11,56,22.60
2018,05,14,11,57,22.50
2018,05,14,11,58,22.50
2018,05,14,11,59,22.40
2018,05,14,12,00,22.40
2018,05,14,12,01,22.40
2018,05,14,12,02,22.40
2018,05,14,12,03,22.40
2018,05,14,12,04,22.40
2018,05,14,12,05,22.30
2018,05,14,12,06,22.30
2018,05,14,12,07,22.20
2018,05,14,12,08,22.20
2018,05,14,12,09,22.10
2018,05,14,12,10,22.10
2018,05,14,12,11,22.10
2018,05,14,12,12,22.10
2018,05,14,12,13,22.10
2018,05,14,12,14,22.20
2018,05,14,12,15,22.20
2018,05,14,12,16,22.30
2018,05,14,12,17,22.30
2018,05,14,12,18,22.30
2018,05,14,12,19,22.30
2018,05,14,12,20,22.30
2018,05,14,12,21,22.30
2018,05,14,12,22,22.30
2018,05,14,12,23,22.30
2018,05,14,12,24,22.30
2018,05,14,12,25,22.30
2018,05,14,12,26,22.30
2018,05,14,12,27,22.30
2018,05,14,12,28,22.30
2018,05,14,12,29,22.30
2018,05,14,12,30,22.30
2018,05,14,12,31,22.30
2018,05,14,12,32,22.30
2018,05,14,12,33,22.30
2018,05,14,12,34,22.30
2018,05,14,12,35,22.30
2018,05,14,12,36,22.30
2018,05,14,12,37,22.20
2018,05,14,12,38,22.30
2018,05,14,12,39,22.30
2018,05,14,12,40,22.30
2018,05,14,12,41,22.30
2018,05,14,12,42,22.30
2018,05,14,12,43,22.40
2018,05,14,12,44,22.40
2018,05,14,12,45,22.40
2018,05,14,12,46,22.40
2018,05,14,12,47,22.40
2018,05,14,12,48,22.40
2018,05,14,12,49,22.40
2018,05,14,12,50,22.50
2018,05,14,12,51,22.50
2018,05,14,12,52,22.60
2018,05,14,12,53,22.70
2018,05,14,12,54,22.70
2018,05,14,12,55,22.70
2018,05,14,12,56,22.80
2018,05,14,12,57,22.80
2018,05,14,12,58,22.80
2018,05,14,12,59,22.80
2018,05,14,13,00,22.80
2018,05,14,13,01,22.80
2018,05,14,13,02,22.80
2018,05,14,13,03,22.80
2018,05,14,13,04,22.80
2018,05,14,13,05,22.90
2018,05,14,13,06,22.90
2018,05,14,13,07,22.90
2018,05,14,13,08,22.90
2018,05,14,13,09,23.00
2018,05,14,13,10,23.00
2018,05,14,13,11,23.00
2018,05,14,13,12,23.00
2018,05,14,13,13,23.00
2018,05,14,13,14,22.90
2018,05,14,13,15,22.90
2018,05,14,13,16,22.90
2018,05,14,13,17,22.80
2018,05,14,13,18,22.90
2018,05,14,13,19,22.90
2018,05,14,13,20,22.90
2018,05,14,13,21,23.00
2018,05,14,13,22,23.10
2018,05,14,13,23,23.10
2018,05,14,13,24,23.10
2018,05,14,13,25,23.20
2018,05,14,13,26,23.20
2018,05,14,13,27,23.30
2018,05,14,13,28,23.30
2018,05,14,13,29,23.40
2018,05,14,13,30,23.40
2018,05,14,13,31,23.40
2018,05,14,13,32,23.40
2018,05,14,13,33,23.40
2018,05,14,13,34,23.50
2018,05,14,13,35,23.50
2018,05,14,13,36,23.60
2018,05,14,13,37,23.60
2018,05,14,13,38,23.70
2018,05,14,13,39,23.70
2018,05,14,13,40,23.80
2018,05,14,13,41,23.90
2018,05,14,13,42,23.90
2018,05,14,13,43,23.90
2018,05,14,13,44,23.90
2018,05,14,13,45,23.80
2018,05,14,13,46,23.60
2018,05,14,13,47,23.60
2018,05,14,13,48,23.60
2018,05,14,13,49,23.50
2018,05,14,13,50,23.50
2018,05,14,13,51,23.40
2018,05,14,13,52,23.40
2018,05,14,13,53,23.30
2018,05,14,13,54,23.30
2018,05,14,13,55,23.40
2018,05,14,13,56,23.40
2018,05,14,13,57,23.40
2018,05,14,13,58,23.40
2018,05,14,13,59,23.50
2018,05,14,14,00,23.50
2018,05,14,14,01,23.50
2018,05,14,14,02,23.60
2018,05,14,14,03,23.60
2018,05,14,14,04,23.70
2018,05,14,14,05,23.70
2018,05,14,14,06,23.80
2018,05,14,14,07,23.80
2018,05,14,14,08,23.80
2018,05,14,14,09,23.80
2018,05,14,14,10,23.80
2018,05,14,14,11,23.90
2018,05,14,14,12,23.90
2018,05,14,14,13,23.90
2018,05,14,14,14,23.90
2018,05,14,14,15,23.90
2018,05,14,14,16,23.90
2018,05,14,14,17,23.90
2018,05,14,14,18,23.90
2018,05,14,14,19,23.90
2018,05,14,14,20,23.90
2018,05,14,14,21,23.80
2018,05,14,14,22,23.80
2018,05,14,14,23,23.90
2018,05,14,14,24,23.90
2018,05,14,14,25,23.90
2018,05,14,14,26,23.90
2018,05,14,14,27,24.00
2018,05,14,14,28,24.00
2018,05,14,14,29,24.00
2018,05,14,14,30,24.10
2018,05,14,14,31,24.10
2018,05,14,14,32,24.20
2018,05,14,14,33,24.20
2018,05,14,14,34,24.30
2018,05,14,14,35,24.40
2018,05,14,14,36,24.50
2018,05,14,14,37,24.60
2018,05,14,14,38,24.70
2018,05,14,14,39,24.70
2018,05,14,14,40,24.80
2018,05,14,14,41,24.80
2018,05,14,14,42,24.80
2018,05,14,14,43,24.80
2018,05,14,14,44,24.80
2018,05,14,14,45,24.80
2018,05,14,14,46,24.80
2018,05,14,14,47,24.80
2018,05,14,14,48,24.80
2018,05,14,14,49,24.80
2018,05,14,14,50,24.80
2018,05,14,14,51,24.80
2018,05,14,14,52,24.90
2018,05,14,14,53,24.90
2018,05,14,14,54,25.00
2018,05,14,14,55,25.00
2018,05,14,14,56,25.10
2018,05,14,14,57,25.00
2018,05,14,14,58,24.90
2018,05,14,14,59,24.90
2018,05,14,15,00,24.80
2018,05,14,15,01,24.80
2018,05,14,15,02,24.80
2018,05,14,15,03,24.70
2018,05,14,15,04,24.70
2018,05,14,15,05,24.70
2018,05,14,15,06,24.70
2018,05,14,15,07,24.80
2018,05,14,15,08,24.80
2018,05,14,15,09,24.70
2018,05,14,15,10,24.70
2018,05,14,15,11,24.70
2018,05,14,15,12,24.60
2018,05,14,15,13,24.60
2018,05,14,15,14,24.50
2018,05,14,15,15,24.50
2018,05,14,15,16,24.50
2018,05,14,15,17,24.50
2018,05,14,15,18,24.50
2018,05,14,15,19,24.60
2018,05,14,15,20,24.60
2018,05,14,15,21,24.60
2018,05,14,15,22,24.60
2018,05,14,15,23,24.60
2018,05,14,15,24,24.60
2018,05,14,15,25,24.60
2018,05,14,15,26,24.60
2018,05,14,15,27,24.60
2018,05,14,15,28,24.60
2018,05,14,15,29,24.60
2018,05,14,15,30,24.50
2018,05,14,15,31,24.50
2018,05,14,15,32,24.50
2018,05,14,15,33,24.60
2018,05,14,15,34,24.60
2018,05,14,15,35,24.60
2018,05,14,15,36,24.70
2018,05,14,15,37,24.70
2018,05,14,15,38,24.70
2018,05,14,15,39,24.80
2018,05,14,15,40,24.80
2018,05,14,15,41,24.80
2018,05,14,15,42,24.80
2018,05,14,15,43,24.80
2018,05,14,15,44,24.80
2018,05,14,15,45,24.80
2018,05,14,15,46,24.80
2018,05,14,15,47,24.80
2018,05,14,15,48,24.80
2018,05,14,15,49,24.90
2018,05,14,15,50,24.90
2018,05,14,15,51,25.00
2018,05,14,15,52,25.00
2018,05,14,15,53,25.10
2018,05,14,15,54,25.10
2018,05,14,15,55,25.10
2018,05,14,15,56,25.10
2018,05,14,15,57,25.10
2018,05,14,15,58,25.10
2018,05,14,15,59,25.10
2018,05,14,16,00,25.10
2018,05,14,16,01,25.10
2018,05,14,16,02,25.10
2018,05,14,16,03,25.10
2018,05,14,16,04,25.10
2018,05,14,16,05,25.10
2018,05,14,16,06,25.10
2018,05,14,16,07,25.20
2018,05,14,16,08,25.20
2018,05,14,16,09,25.30
2018,05,14,16,10,25.40
2018,05,14,16,11,25.40
2018,05,14,16,12,25.30
2018,05,14,16,13,25.30
2018,05,14,16,14,25.30
2018,05,14,16,15,25.30
2018,05,14,16,16,25.30
2018,05,14,16,17,25.40
2018,05,14,16,18,25.40
2018,05,14,16,19,25.40
2018,05,14,16,20,25.40
2018,05,14,16,21,25.50
2018,05,14,16,22,25.50
2018,05,14,16,23,25.50
2018,05,14,16,24,25.60
2018,05,14,16,25,25.60
2018,05,14,16,26,25.60
2018,05,14,16,27,25.60
2018,05,14,16,28,25.60
2018,05,14,16,29,25.60
2018,05,14,16,30,25.50
2018,05,14,16,31,25.40
2018,05,14,16,32,25.40
2018,05,14,16,33,25.30
2018,05,14,16,34,25.30
2018,05,14,16,35,25.30
2018,05,14,16,36,25.30
2018,05,14,16,37,25.40
2018,05,14,16,38,25.40
2018,05,14,16,39,25.40
2018,05,14,16,40,25.30
2018,05,14,16,41,25.30
2018,05,14,16,42,25.30
2018,05,14,16,43,25.30
2018,05,14,16,44,25.30
2018,05,14,16,45,25.30
2018,05,14,16,46,25.30
2018,05,14,16,47,25.30
2018,05,14,16,48,25.30
2018,05,14,16,49,25.30
2018,05,14,16,50,25.30
2018,05,14,16,51,25.30
2018,05,14,16,52,25.30
2018,05,14,16,53,25.30
2018,05,14,16,54,25.40
2018,05,14,16,55,25.40
2018,05,14,16,56,25.50
2018,05,14,16,57,25.50
2018,05,14,16,58,25.40
2018,05,14,16,59,25.40
2018,05,14,17,00,25.40
2018,05,14,17,01,25.40
2018,05,14,17,02,25.40
2018,05,14,17,03,25.40
2018,05,14,17,04,25.40
2018,05,14,17,05,25.40
2018,05,14,17,06,25.50
2018,05,14,17,07,25.50
2018,05,14,17,08,25.50
2018,05,14,17,09,25.60
2018,05,14,17,10,25.60
2018,05,14,17,11,25.50
2018,05,14,17,12,25.50
2018,05,14,17,13,25.40
2018,05,14,17,14,25.40
2018,05,14,17,15,25.40
2018,05,14,17,16,25.40
2018,05,14,17,17,25.40
2018,05,14,17,18,25.40
2018,05,14,17,19,25.40